Regional Weather Roundup
Issued by NWS Albany, NY

Home | Current Version | Previous Version | Text Only | Print | Product List | Glossary On
Versions: 1 2 3 4 5 6 7 8 9 10 11 12 13 14 15 16 17 18 19 20 21 22 23 24 25 26 27 28
000
ASUS41 KALY 251110
RWRALY

NEW YORK STATE HOURLY WEATHER ROUNDUP
NATIONAL WEATHER SERVICE ALBANY NY
600 AM EST SAT FEB 25 2017

NOTE: "FAIR" INDICATES FEW OR NO CLOUDS BELOW 12,000 FEET WITH NO
SIGNIFICANT WEATHER AND/OR NO OBSTRUCTIONS TO VISIBILITY.

NYZ032-033-038>043-046>054-057>066-NYZ062>081-082-084-251200-
EAST


CITY           SKY/WX    TMP DP  RH WIND       PRES   REMARKS
ALBANY         PTCLDY    61  53  75 S13G23    29.69S
GLENS FALLS    CLOUDY    41  37  86 CALM      29.68F
POUGHKEEPSIE   CLOUDY    59  54  83 VRB7      29.74F
MONTGOMERY     CLOUDY    60  55  83 S8        29.73F
WHITE PLAINS   FOG       53  52  96 SE5       29.78F VSB 1/4
ISLIP          FOG       50  50 100 CALM      29.82S VSB 1/8
NEW YORK CITY  FOG       52  50  93 S6        29.79F VSB 1/4
CENTRAL PARK   PTCLDY    53  51  93 S5        29.80F
$$

NYZ005>009-017-018-044>046-055-056-251200-
CENTRAL


CITY           SKY/WX    TMP DP  RH WIND       PRES   REMARKS
FULTON         MOCLDY    62  53  72 S13       29.54R
SYRACUSE       MOCLDY    62  53  72 S16G25    29.53S
ROME           PTCLDY    59  53  80 SE8       29.59F
ELMIRA         CLOUDY    63  52  67 SW10G18   29.57F
BINGHAMTON     PTCLDY    58  53  84 S10G21    29.61F
MONTICELLO     CLOUDY    55  54  94 S7        29.74F
$$

NYZ026>034-041>043-087-251200-
NORTH


CITY           SKY/WX    TMP DP  RH WIND       PRES   REMARKS
WATERTOWN      MOCLDY    61  53  75 S9G18     29.52S
FORT DRUM      NOT AVBL
OGDENSBURG     FOG       34  34  99 NE3       29.56S VSB 1
MASSENA        FOG       34  33  96 E12       29.60F VSB 3/4 WCI  25
SARANAC LAKE   CLOUDY    53  49  86 S10       29.59F
PLATTSBURGH    FOG       35  34  96 CALM      29.63F VSB 1/2
$$

NYZ001>004-010>016-019>021-085-251200-
WEST


CITY           SKY/WX    TMP DP  RH WIND       PRES   REMARKS
NIAGARA FALLS  LGT RAIN  55  50  83 S12       29.45F
BUFFALO        LGT RAIN  56  52  86 S12       29.48F
DUNKIRK        RAIN      51  48  89 SW21G31   29.51R
JAMESTOWN      CLOUDY    52  48  87 S8        29.50F
WELLSVILLE     CLOUDY    58  49  72 S7        29.58S
ROCHESTER      CLOUDY    59  49  69 SW12      29.53S
PENN YAN       CLOUDY    60  50  69 SW7       29.56S
$$

             KEY
       WCI = WIND CHILL INDEX
       VSB = VISIBILITY
       HX  = HEAT INDEX
$$




USA.gov is the U.S. government's official web portal to all federal, state and local government web resources and services.